Find Starlink 32780

NORAD ID: 62746 Int'l Des: 2025-014 Owner: SPXS Country: US Constellation: starlink operational
LEOCIRCULAR

リアルタイム位置

3D地球を読み込み中...

Starlink 32780について

説明を読み込み中...

次回通過

Passes for default location (London). Set your location on the main map for personalized predictions.

高度履歴

Loading altitude history...

軌道要素

1 62746U 25014M 26122.24448115 .00037063 00000-0 13491-2 0 9998
2 62746 42.9973 212.3094 0000728 140.5685 219.5220 15.27591336 71447
Epoch: May 2, 2026 • Age: 13 hours

現在のステータス

高度 486.3 km
速度 7.62 km/s
衛星直下点 -17.51°S, 101.7°W
打ち上げ日 Jan 21, 2025
運用期間 1.2 years
タイプ internet

技術仕様

分類 Payload
質量 730.00 kg
乾燥質量 700.00 kg
総質量 730.00 kg
長さ 0.30 m
直径 4.10 m
スパン 29.00 m
形状 Box + pan
製造者 SPXS
バスタイプ Starlink V2M
フェーズステータス In Orbit
所有者/国 SPXS/US

Most Searched